CZ-6A DEB, 54944

Orbit data source: Space-Track

CZ-6A DEB, 54944 is space debris in SSO originally from a launch on Fri, 11 Nov 2022 UTC launched from the Taiyaun Space Center, China (TSC). Debris objects in space refer to the collection of defunct objects orbiting the Earth. Examples of debris include non-operational satellites, rocket bodies, and fragments generated from explosions, collisions, or faulty payload assembly.

Loading next visibility...
Identifier
54944, 2022-151SH
Orbit
SSO
Country
Flag of CNCN / PRC
Related business
Manufacturer
SAST
Mission
Spacecraft
Bus & Motor
Unknown
Mass
Unknown
Launch date (UTC)
2022-11-11 (4 years ago)
Launch vehicle
Unknown
Launch site
Taiyaun Space Center, China (TSC)
Object type
Payload
Rocket body
Debris
Shape & HBR
Unknown shape, 0.1 m
Radar Cross Section
Medium (>0.1 m² and <1 m²)

Expand to show TLE details & history
Last TLE update: 2 days ago

TLE from 2 days ago
0 CZ-6A DEB
1 54944U 22151SH  26171.00944822  .00000090  00000-0  17753-3 0  9998
2 54944  99.0372  10.2477 0509712 168.3664 192.9769 13.12951675172145
Epoch: 2026-06-20T00:13Z
TLE epoch observation values (Epoch: 2026-06-20T00:13:36.326Z)
Latitude
0.00001°
Longitude
98.61611°
Altitude
1,592.509 km
Speed
6.895 km/s
True Right ascension
00h 40m 59s
True Declination
0° 00' 00"
Sunlit
Object was in daylight at epoch
Visualization orbit readout
Latitude
Unknown
Longitude
Unknown
Altitude
Unknown
Speed
Unknown
Apparent Right ascension
Unknown
Apparent Declination
Unknown
Sunlit
N/A
Visualization observer readout
Local Sidereal Time
21:24:44
Azimuth
Unknown
Elevation
Unknown
Doppler factor
Unknown
Orbital elements
Apogee altitude
1,595.8 km
Perigee altitude
822.342 km
Semi-major axis
7,587.208 km
Eccentricity
0.05097
Inclination
99.0372°
RAAN
10.2477°
Arg. of periapsis
168.3664°
True anomaly
191.74222°
Mean anomaly
192.9769°
Eccentric anomaly
192.35216°
Mean motion
3.28413 °/min
Orbital period
109.62 mins
BSTAR
0.00017753
Loading maneuver chart data...
Computing Atmospheric mass density...
Loading historical data...
Loading historical data...
Loading historical data...
Loading historical data...
Loading historical data...
Loading historical data...
Loading historical data...

Documentation

Showing up to 5 results
|